IN3HNH-13 Weather Reports


Display with metric or nautical units.
time (UTC)temp
F
wind
direction
speed
MPH
gust
MPH
rain 1hr
in
rain 24hr
in
rain mn
in
humidity
%
barometer
mb
20260507193005 62 187 0.0 0.0 0.00 0.02 0.01 64 1012.3
20260507191537 62 187 0.0 0.0 0.00 0.02 0.01 63 1012.0
20260507190006 63 187 0.0 0.0 0.00 0.02 0.01 61 1011.7
20260507184542 63 187 0.0 0.0 0.00 0.02 0.01 59 1011.4
20260507183017 63 187 0.0 0.0 0.00 0.02 0.01 58 1011.2
20260507181549 65 187 0.0 0.0 0.00 0.02 0.01 54 1010.9
20260507180120 66 187 0.0 0.0 0.00 0.02 0.01 51 1010.7
20260507174617 66 187 0.0 1.0 0.00 0.02 0.01 50 1010.5
20260507173024 67 187 0.0 0.0 0.00 0.02 0.01 48 1010.4
20260507171609 67 187 0.0 2.0 0.00 0.02 0.01 47 1010.3
20260507170025 67 187 0.0 3.0 0.00 0.02 0.01 45 1010.1
20260507164502 68 187 0.0 4.0 0.00 0.02 0.01 44 1010.0
20260507163033 68 187 0.0 4.0 0.00 0.02 0.01 45 1009.9
20260507161503 69 187 0.0 3.0 0.00 0.02 0.01 44 1009.9
20260507160055 68 187 0.0 0.0 0.00 0.02 0.01 44 1009.8
20260507154508 68 187 0.0 0.0 0.00 0.02 0.01 46 1009.9
20260507153037 68 187 1.0 3.0 0.00 0.02 0.01 46 1009.8
20260507151508 68 187 1.0 10.0 0.00 0.02 0.01 46 1009.7
20260507150039 68 187 2.0 7.0 0.00 0.02 0.01 46 1009.9
20260507144509 68 192 2.0 8.0 0.00 0.02 0.01 46 1010.0
20260507143039 68 192 3.0 10.0 0.00 0.02 0.01 47 1010.1
20260507141515 69 179 5.0 11.0 0.00 0.02 0.01 47 1010.0
20260507140057 68 167 0.0 14.0 0.00 0.02 0.01 49 1010.0
20260507134519 69 168 2.0 9.0 0.00 0.02 0.01 50 1010.0
20260507133004 68 163 7.0 12.0 0.00 0.02 0.01 52 1010.0
20260507131605 69 163 1.0 6.0 0.00 0.02 0.01 50 1010.1
20260507130007 69 163 2.0 7.0 0.00 0.02 0.01 50 1010.1
20260507124555 68 163 1.0 6.0 0.00 0.03 0.01 52 1010.4
20260507123016 69 163 0.0 7.0 0.00 0.03 0.01 50 1010.5
20260507121550 68 163 0.0 7.0 0.00 0.03 0.01 55 1010.5
20260507120030 68 163 3.0 6.0 0.00 0.03 0.01 52 1010.4
20260507114551 67 163 0.0 6.0 0.00 0.04 0.01 54 1010.3
20260507113054 67 163 1.0 7.0 0.00 0.04 0.01 54 1010.5
20260507111553 66 163 3.0 7.0 0.00 0.04 0.01 56 1010.6
20260507110023 66 163 5.0 9.0 0.00 0.04 0.01 56 1010.8
20260507104612 66 163 0.0 3.0 0.00 0.07 0.01 55 1011.0
20260507103033 66 163 0.0 6.0 0.00 0.07 0.01 55 1011.2
20260507101530 64 163 0.0 0.0 0.00 0.07 0.01 60 1011.4
20260507100027 63 163 0.0 2.0 0.00 0.07 0.01 62 1011.6
20260507094547 62 163 1.0 5.0 0.00 0.08 0.01 66 1011.8
20260507093028 62 163 0.0 5.0 0.00 0.08 0.01 64 1012.0
20260507090057 61 163 0.0 5.0 0.00 0.08 0.01 67 1012.1
20260507084548 61 163 0.0 2.0 0.00 0.08 0.01 67 1012.1
20260507083022 60 163 0.0 0.0 0.00 0.08 0.01 70 1012.2
20260507081555 59 163 0.0 0.0 0.00 0.08 0.01 74 1012.3
20260507080026 59 163 0.0 0.0 0.00 0.08 0.01 76 1012.5
20260507074606 57 163 0.0 1.0 0.00 0.09 0.01 78 1012.5
20260507073032 56 163 0.0 0.0 0.00 0.09 0.01 84 1012.6
20260507071518 55 163 0.0 0.0 0.00 0.09 0.01 84 1012.6
20260507070107 54 163 0.0 0.0 0.00 0.09 0.01 85 1012.6
20260507064545 54 163 0.0 0.0 0.00 0.09 0.01 86 1012.5
20260507063028 53 162 0.0 0.0 0.00 0.09 0.01 88 1012.5
20260507061518 54 162 0.0 0.0 0.00 0.09 0.01 89 1012.4
20260507060008 53 162 0.0 0.0 0.00 0.09 0.01 89 1012.1
20260507054559 53 162 0.0 0.0 0.00 0.09 0.01 90 1012.0
20260507053047 53 162 0.0 0.0 0.00 0.09 0.01 91 1012.1
20260507051536 52 162 0.0 0.0 0.00 0.09 0.01 90 1012.0
20260507050039 52 163 0.0 0.0 0.00 0.09 0.01 90 1011.8
20260507044559 52 162 0.0 0.0 0.00 0.10 0.01 91 1011.6
20260507043042 52 162 0.0 0.0 0.00 0.10 0.01 91 1011.5
20260507041532 53 162 0.0 0.0 0.00 0.10 0.01 91 1011.3
20260507040023 52 163 0.0 0.0 0.00 0.10 0.01 90 1011.0
20260507034505 52 162 0.0 0.0 0.00 0.10 0.01 93 1011.1
20260507033051 52 163 0.0 0.0 0.00 0.10 0.01 94 1011.2
20260507031538 52 163 0.0 0.0 0.00 0.10 0.01 94 1011.3
20260507030026 52 162 0.0 0.0 0.00 0.10 0.01 93 1011.1
20260507024508 52 162 0.0 0.0 0.00 0.10 0.01 93 1011.2
20260507023045 52 162 0.0 0.0 0.00 0.10 0.01 93 1011.1
20260507021545 52 162 0.0 0.0 0.00 0.10 0.01 93 1011.1
20260507020015 52 162 0.0 0.0 0.00 0.10 0.01 93 1011.1
20260507014548 52 162 0.0 0.0 0.00 0.10 0.01 93 1011.0
20260507013034 52 162 0.0 0.0 0.00 0.10 0.01 93 1011.1
20260507011604 52 162 0.0 0.0 0.00 0.10 0.01 93 1011.0
20260507010048 52 162 0.0 0.0 0.00 0.10 0.01 93 1011.0
20260507004522 52 162 0.0 0.0 0.00 0.10 0.01 93 1010.9
20260507003038 52 162 0.0 0.0 0.00 0.10 0.01 93 1010.8
20260507001511 52 162 0.0 0.0 0.00 0.10 0.01 93 1010.8
20260507000049 52 162 0.0 0.0 0.00 0.10 0.01 93 1010.8
20260506234528 52 162 0.0 0.0 0.00 0.10 0.01 93 1010.9
20260506233008 51 162 0.0 0.0 0.00 0.10 0.01 93 1010.9
20260506231547 52 162 0.0 0.0 0.01 0.10 0.01 93 1010.8
20260506230020 52 162 0.0 0.0 0.01 0.10 0.01 94 1010.7
20260506224548 52 162 0.0 0.0 0.01 0.10 0.01 93 1010.8
20260506223019 52 162 0.0 0.0 0.01 0.10 0.01 93 1010.9
20260506221553 52 163 0.0 0.0 0.00 0.09 0.00 93 1010.7
20260506220035 53 162 0.0 0.0 0.00 0.09 0.00 93 1010.7
20260506214509 53 162 0.0 0.0 0.00 0.09 0.09 93 1010.6
20260506213039 54 162 0.0 0.0 0.00 0.09 0.09 93 1010.6
20260506211511 54 162 0.0 0.0 0.01 0.09 0.09 92 1010.4
20260506210044 54 162 0.0 0.0 0.01 0.09 0.09 92 1010.4
20260506204603 54 162 0.0 0.0 0.01 0.09 0.09 92 1010.3
20260506203032 55 162 0.0 0.0 0.01 0.09 0.09 90 1010.2
20260506201502 55 162 1.0 7.0 0.00 0.09 0.09 88 1009.9
20260506200024 55 162 0.0 8.0 0.00 0.09 0.09 86 1009.6
20260506194558 54 162 0.0 5.0 0.00 0.09 0.09 90 1009.5